sat.trackr.live / text

‹ back to catalog

STARLINK-32796

NORAD 62739 · 2025-014E

PAYLOAD ACTIVE UNKNOWN

§ Identity

Operator
Country
US
Launch date
2025-01-21
Launch site
AFETR
Launch vehicle
Mass (kg)
RCS (m²)

Purposes: comms

External: N2YO · Heavens-Above · Gunter

§ Orbital elements

Epoch: 2026-05-25T04:53:42.791136Z

Period
94.27 min
Inclination
43.0004°
Eccentricity
0.0001230
Mean motion
15.27592231 rev/d
Perigee alt
482.2 km
Apogee alt
483.9 km
Semi-major
6,861.1 km
B*
4.8035e-4
RAAN
81.9002°
Arg perigee
266.9612°
Mean anomaly
93.1099°
Rev number
7,496

§ Raw data

STARLINK-327961 62739U 25014E   26145.20396749  .00012984  00000+0  48035-3 0  99932 62739  43.0004  81.9002 0001230 266.9612  93.1099 15.27592231 74962

JSON: /api/v1/satellites/62739 · /tle

For live sub-satellite position, see the globe view (requires WebGL).

§ Visibility from observer

Set your observer location to see the next 7 days of passes ≥ 10°. The values pass through the URL so the page stays shareable.

No JS? Fill the form by hand. The geolocation button needs JavaScript.